DeKalb, IL

4:36 AM CST on February 23, 2018 (GMT -0600)
De Kalb Taylor Municipal

Weather History for KDKB - March, 2013

Change the Weather History Date:

Thursday, March 28, 2013

  Actual Average (KARR) Record (KARR)
Temperature  
Mean Temperature 36 °F -  
Max Temperature 44 °F 51 °F 71 °F (2004)
Min Temperature 27 °F 32 °F 14 °F (2015)
Degree Days  
Heating Degree Days 30    
Moisture  
Dew Point 21 °F    
Average Humidity 57    
Maximum Humidity 77    
Minimum Humidity 36    
Precipitation  
Precipitation 0.00 in - - ()
Sea Level Pressure  
Sea Level Pressure 30.31 in    
Wind  
Wind Speed 5 mph (WNW)    
Max Wind Speed 8 mph    
Max Gust Speed -    
Visibility 10 miles    
Events      
Averages and records for this station are not official NWS values.
T = Trace of Precipitation, MM = Missing Value Source: NWS Daily Summary

Daily Weather History Graph

Daily Weather History Graph

Search for Another Location

Airport or City:

Trip Planner

Search our weather history database for the weather conditions in past years. The results will help you decide how hot, cold, wet, or windy it might be!

Date:

Astronomy

Mar. 28, 2013 Rise Set
Actual Time 6:43 AM CDT 7:16 PM CDT
Civil Twilight 6:15 AM CDT 7:44 PM CDT
Nautical Twilight 5:42 AM CDT 8:17 PM CDT
Astronomical Twilight 5:08 AM CDT 8:51 PM CDT
Moon 9:10 PM CDT (3/28) 7:10 AM CDT (3/28)
Length of Visible Light 13h 28m
Length of Day
12h 32m
Full, 98% of the Moon is Illuminated
Mar 28
Full
Apr 2
Last Quarter
Apr 10
New
Apr 18
First Quarter
Apr 25
Full

Hourly Weather History & Observations

Time (CDT) Temp. Windchill Dew Point Humidity Pressure Visibility Wind Dir Wind Speed Gust Speed Precip Events Conditions
12:15 AM 29.3 °F 23.2 °F 21.9 °F 74% 30.31 in 10.0 mi WSW 5.8 mph - N/A   Clear
12:35 AM 30.2 °F 25.4 °F 21.2 °F 69% 30.31 in 10.0 mi WSW 4.6 mph - N/A   Clear
12:55 AM 29.8 °F 24.9 °F 21.2 °F 70% 30.31 in 10.0 mi WSW 4.6 mph - N/A   Clear
1:15 AM 29.7 °F 23.7 °F 20.8 °F 70% 30.32 in 10.0 mi WSW 5.8 mph - N/A   Clear
1:35 AM 29.1 °F 23.0 °F 20.7 °F 71% 30.32 in 10.0 mi WSW 5.8 mph - N/A   Clear
1:55 AM 29.3 °F 23.2 °F 20.1 °F 69% 30.32 in 10.0 mi WSW 5.8 mph - N/A   Clear
2:15 AM 30.2 °F 24.3 °F 20.1 °F 66% 30.31 in 10.0 mi WSW 5.8 mph - N/A   Clear
2:35 AM 30.2 °F 24.3 °F 19.8 °F 65% 30.31 in 10.0 mi WSW 5.8 mph - N/A   Clear
2:55 AM 29.1 °F 24.1 °F 20.1 °F 69% 30.31 in 10.0 mi West 4.6 mph - N/A   Clear
3:15 AM 29.7 °F 24.7 °F 20.3 °F 68% 30.31 in 10.0 mi West 4.6 mph - N/A   Clear
3:35 AM 29.3 °F 24.3 °F 20.5 °F 70% 30.31 in 10.0 mi West 4.6 mph - N/A   Clear
3:55 AM 28.4 °F 23.3 °F 20.8 °F 73% 30.31 in 10.0 mi West 4.6 mph - N/A   Clear
4:15 AM 28.8 °F 22.6 °F 20.3 °F 71% 30.31 in 10.0 mi West 5.8 mph - N/A   Clear
4:35 AM 28.2 °F 21.0 °F 20.7 °F 73% 30.31 in 10.0 mi West 6.9 mph - N/A   Clear
4:55 AM 27.9 °F 22.6 °F 21.0 °F 75% 30.31 in 10.0 mi West 4.6 mph - N/A   Clear
5:15 AM 27.3 °F 22.0 °F 20.8 °F 77% 30.31 in 10.0 mi West 4.6 mph - N/A   Clear
5:35 AM 27.9 °F 22.6 °F 21.4 °F 77% 30.32 in 10.0 mi West 4.6 mph - N/A   Clear
5:55 AM 27.5 °F 20.2 °F 21.2 °F 77% 30.32 in 10.0 mi West 6.9 mph - N/A   Clear
6:15 AM 28.0 °F 20.8 °F 21.2 °F 76% 30.32 in 10.0 mi West 6.9 mph - N/A   Clear
6:35 AM 27.9 °F 21.5 °F 21.2 °F 76% 30.33 in 10.0 mi West 5.8 mph - N/A   Clear
6:55 AM 27.9 °F 20.6 °F 21.2 °F 76% 30.33 in 10.0 mi West 6.9 mph - N/A   Clear
7:15 AM 28.2 °F 21.0 °F 21.7 °F 77% 30.34 in 10.0 mi West 6.9 mph - N/A   Clear
7:35 AM 29.5 °F 23.4 °F 23.0 °F 77% 30.34 in 10.0 mi West 5.8 mph - N/A   Clear
7:55 AM 30.6 °F 25.8 °F 24.3 °F 77% 30.34 in 10.0 mi WNW 4.6 mph - N/A   Clear
8:15 AM 32.0 °F 26.4 °F 24.6 °F 74% 30.34 in 10.0 mi WNW 5.8 mph - N/A   Clear
8:35 AM 33.6 °F 29.4 °F 24.1 °F 68% 30.34 in 10.0 mi WNW 4.6 mph - N/A   Clear
8:55 AM 35.1 °F 31.0 °F 24.4 °F 65% 30.34 in 10.0 mi WNW 4.6 mph - N/A   Clear
9:15 AM 35.4 °F 30.5 °F 21.9 °F 58% 30.34 in 10.0 mi WNW 5.8 mph - N/A   Clear
9:35 AM 36.5 °F 31.8 °F 22.1 °F 56% 30.34 in 10.0 mi WNW 5.8 mph - N/A   Clear
9:55 AM 36.9 °F 33.1 °F 21.0 °F 53% 30.34 in 10.0 mi West 4.6 mph - N/A   Clear
10:15 AM 37.8 °F - 20.1 °F 49% 30.35 in 10.0 mi Calm Calm - N/A   Clear
10:35 AM 39.2 °F 37.0 °F 19.4 °F 45% 30.35 in 10.0 mi West 3.5 mph - N/A   Clear
10:55 AM 39.6 °F 36.3 °F 17.8 °F 41% 30.35 in 10.0 mi WNW 4.6 mph - N/A   Clear
11:15 AM 40.6 °F 36.7 °F 17.8 °F 40% 30.35 in 10.0 mi NW 5.8 mph - N/A   Clear
11:35 AM 41.4 °F 36.8 °F 19.2 °F 41% 30.35 in 10.0 mi WNW 6.9 mph - N/A   Clear
11:55 AM 41.2 °F 36.0 °F 18.5 °F 40% 30.35 in 10.0 mi NNW 8.1 mph - N/A   Clear
12:15 PM 41.2 °F 38.2 °F 17.8 °F 39% 30.35 in 10.0 mi NNW 4.6 mph - N/A   Clear
12:35 PM 42.1 °F 39.2 °F 20.5 °F 42% 30.34 in 10.0 mi North 4.6 mph - N/A   Clear
12:55 PM 41.9 °F 39.0 °F 18.5 °F 39% 30.34 in 10.0 mi NW 4.6 mph - N/A   Clear
1:15 PM 42.3 °F 39.4 °F 18.5 °F 39% 30.34 in 10.0 mi NW 4.6 mph - N/A   Clear
1:35 PM 43.2 °F 38.4 °F 19.6 °F 39% 30.33 in 10.0 mi WNW 8.1 mph - N/A   Clear
1:55 PM 43.0 °F 39.5 °F 19.8 °F 40% 30.33 in 10.0 mi WNW 5.8 mph - N/A   Clear
2:15 PM 43.2 °F 40.5 °F 19.6 °F 39% 30.32 in 10.0 mi WNW 4.6 mph - N/A   Clear
2:35 PM 44.1 °F 39.5 °F 21.6 °F 41% 30.31 in 10.0 mi WNW 8.1 mph - N/A   Clear
2:55 PM 43.3 °F 41.7 °F 20.3 °F 40% 30.31 in 10.0 mi West 3.5 mph - N/A   Clear
3:15 PM 43.5 °F 40.9 °F 20.7 °F 40% 30.30 in 10.0 mi SW 4.6 mph - N/A   Clear
3:35 PM 44.2 °F 40.3 °F 23.2 °F 43% 30.30 in 10.0 mi West 6.9 mph - N/A   Clear
3:55 PM 44.6 °F 40.7 °F 22.5 °F 42% 30.29 in 10.0 mi NW 6.9 mph - N/A   Clear
4:15 PM 44.2 °F 41.0 °F 20.8 °F 39% 30.28 in 10.0 mi NNW 5.8 mph - N/A   Clear
4:35 PM 44.4 °F 42.0 °F 20.5 °F 39% 30.28 in 10.0 mi NW 4.6 mph - N/A   Clear
4:55 PM 44.8 °F 41.6 °F 20.5 °F 38% 30.28 in 10.0 mi NNW 5.8 mph - N/A   Clear
5:15 PM 44.4 °F 42.0 °F 18.7 °F 36% 30.28 in 10.0 mi West 4.6 mph - N/A   Clear
5:35 PM 44.1 °F - 18.3 °F 36% 30.28 in 10.0 mi Calm Calm - N/A   Clear
5:55 PM 43.9 °F 42.3 °F 19.4 °F 38% 30.27 in 10.0 mi NW 3.5 mph - N/A   Clear
6:15 PM 43.0 °F 41.3 °F 20.3 °F 40% 30.27 in 10.0 mi WNW 3.5 mph - N/A   Clear
6:35 PM 42.3 °F 39.4 °F 22.6 °F 46% 30.28 in 10.0 mi WNW 4.6 mph - N/A   Clear
6:55 PM 41.4 °F 38.4 °F 21.4 °F 45% 30.28 in 10.0 mi WNW 4.6 mph - N/A   Clear
7:15 PM 40.1 °F 38.0 °F 22.6 °F 50% 30.28 in 10.0 mi NW 3.5 mph - N/A   Clear
7:35 PM 40.5 °F - 21.9 °F 48% 30.29 in 10.0 mi Calm Calm - N/A   Clear
7:55 PM 40.6 °F - 21.2 °F 46% 30.29 in 10.0 mi Calm Calm - N/A   Clear
8:15 PM 40.1 °F - 21.4 °F 47% 30.29 in 10.0 mi Calm Calm - N/A   Scattered Clouds
8:35 PM 37.8 °F - 22.1 °F 53% 30.29 in 10.0 mi Calm Calm - N/A   Mostly Cloudy
8:55 PM 37.6 °F - 22.8 °F 55% 30.30 in 10.0 mi Calm Calm - N/A   Mostly Cloudy
9:15 PM 38.5 °F 35.0 °F 21.9 °F 51% 30.30 in 10.0 mi North 4.6 mph - N/A   Scattered Clouds
9:35 PM 36.9 °F 33.1 °F 23.7 °F 59% 30.31 in 10.0 mi North 4.6 mph - N/A   Mostly Cloudy
9:55 PM 37.6 °F 34.0 °F 23.7 °F 57% 30.31 in 10.0 mi North 4.6 mph - N/A   Overcast
10:15 PM 36.0 °F 31.1 °F 24.8 °F 64% 30.31 in 10.0 mi North 5.8 mph - N/A   Overcast
10:35 PM 36.0 °F 32.1 °F 24.8 °F 64% 30.31 in 10.0 mi NNE 4.6 mph - N/A   Overcast
10:55 PM 35.1 °F 30.1 °F 26.4 °F 71% 30.30 in 10.0 mi NE 5.8 mph - N/A   Overcast
11:15 PM 34.2 °F 31.2 °F 26.6 °F 74% 30.30 in 10.0 mi ENE 3.5 mph - N/A   Overcast
11:35 PM 35.2 °F 32.4 °F 24.6 °F 65% 30.30 in 10.0 mi ENE 3.5 mph - N/A   Overcast
11:55 PM 35.1 °F 32.2 °F 25.0 °F 67% 30.30 in 10.0 mi ENE 3.5 mph - N/A   Overcast